紫金山-アトラス彗星

C/2023 A3 ( Tsuchinshan-ATLAS )

English version
Home page
Updated on October 3, 2024

---------------------------------------------------------------------

・ プロフィール

発見日 2023年1月9日、2月22日
発見光度 18.7等、18.0等
発見者 Purple Mountain Observatory's XuYi Station, Asteroid Terrestrial-Impact Last Alert System (ATLAS) search program

・ 写真集

・ 軌道要素

Epoch 2024 Oct. 17.0 TT = JDT 2460600.5                                         
T 2024 Sept. 27.74098 TT                                Rudenko                 
q   0.3914134            (2000.0)            P               Q                  
z  -0.0002396      Peri.  308.49328     +0.36145095     +0.90082802             
 +/-0.0000007      Node    21.55950     +0.91852620     -0.29969682             
e   1.0000938      Incl.  139.11040     -0.16019624     +0.31415074             
From 5300 observations 2022 Apr. 9-2024 Sept. 30, mean residual 0".7.           

・ 星図

・ 光度変化

        m1 = -17.0 + 5 logΔ + 35   log r  [    ,-575]  (              〜2023年 3月 2日)
        m1 =   4.5 + 5 logΔ + 10.0 log r  [-575,-247]  (2023年 3月 2日〜2024年 1月24日)
        m1 =   6.0 + 5 logΔ +  7.5 log r  [-247, 247]  (2024年 1月24日〜2025年 6月 1日)
        m1 =   4.5 + 5 logΔ + 10.0 log r  [ 247,    ]  (2025年 6月 1日〜              )

---------------------------------------------------------------------

軌道要素はM.P.E.C. 2024-T42に掲載されたものです。
星図はステラナビゲータ Ver.11 (アストロアーツ) で作成したものです。
光度グラフはComet for Windowsで作成したものです。

---------------------------------------------------------------------

Copyright(C) Seiichi Yoshida (comet@aerith.net). All rights reserved.